Regional Weather Roundup
Issued by NWS

Home | Current Version | Previous Version | Graphics & Text | Print | Product List | Glossary On
Versions: 1 2 3 4 5 6 7 8 9 10 11 12 13 14 15 16 17 18 19 20 21 22 23 24 25 26 27 28 29 30 31 32 33 34 35 36 37 38 39 40 41 42 43 44 45 46 47 48 49 50
000
ASUS43 KTOP 231759
RWRKS

WEATHER ROUNDUP FOR KANSAS
NATIONAL WEATHER SERVICE GOODLAND KS
100 PM CDT SAT AUG 23 2014

NOTE:  "FAIR" INDICATES FEW OR NO CLOUDS BELOW 12,000 FEET WITH NO
SIGNIFICANT WEATHER AND/OR OBSTRUCTIONS TO VISIBILITY.

KSZ001>006-013>018-027>032-041>047-231900-
NORTHWEST KANSAS

CITY           SKY/WX    TMP DP  RH WIND       PRES   REMARKS
GOODLAND       MOSUNNY   79  63  57 S6        29.89F
6HR MIN TEMP:  63; 6HR MAX TEMP:  79;

HAYS           SUNNY     91  63  38 S20G26    29.83F
HILL CITY      SUNNY     87  65  47 S13       29.82F
6HR MIN TEMP:  67; 6HR MAX TEMP:  87;

RUSSELL        SUNNY     94  61  33 S16G29    29.82F
6HR MIN TEMP:  68; 6HR MAX TEMP:  94;

$$

KSZ061>065-074>080-084>089-231900-
SOUTHWEST KANSAS

CITY           SKY/WX    TMP DP  RH WIND       PRES   REMARKS
DODGE CITY     PTSUNNY   88  58  36 SW17G28   29.88F
6HR MIN TEMP:  68; 6HR MAX TEMP:  90;

ELKHART          N/A     91  49  23 W16         N/A
GARDEN CITY    PTSUNNY   85  61  44 S14       29.88F
6HR MIN TEMP:  65; 6HR MAX TEMP:  85;

GREAT BEND     SUNNY     95  61  31 SW22G29   29.84F HX  95
LIBERAL        MOSUNNY   90  59  35 SW17G26   29.91F
$$

KSZ066>073-081>083-090>101-231900-
SOUTHEAST KANSAS

CITY           SKY/WX    TMP DP  RH WIND       PRES   REMARKS
CHANUTE        SUNNY     97  61  30 S20       29.92F HX  97
6HR MIN TEMP:  74; 6HR MAX TEMP:  98;

COFFEYVILLE    SUNNY     97  63  32 SW17      29.92F HX  98
6HR MIN TEMP:  76; 6HR MAX TEMP:  97;

HUTCHINSON     SUNNY     96  60  30 S17       29.87F HX  96
6HR MIN TEMP:  71; 6HR MAX TEMP:  96;

NEWTON         SUNNY     93  59  31 S18       29.92F
PARSONS        SUNNY     96  64  34 SW10G18   29.94F HX  98
6HR MIN TEMP:  74; 6HR MAX TEMP:  96;

WICHITA INTL   MOSUNNY   96  58  27 S15       29.88F HX  95
6HR MIN TEMP:  71; 6HR MAX TEMP:  97;

WICHITA JABRA  SUNNY     93  59  31 S15       29.89F
6HR MIN TEMP:  73; 6HR MAX TEMP:  93;

WINFIELD       SUNNY     98  57  25 SW20G26   29.92F HX  97
6HR MIN TEMP:  75; 6HR MAX TEMP:  98;

$$

KSZ007>012-019>026-033>040-048>060-102>105-231900-
NORTHEAST KANSAS

CITY           SKY/WX    TMP DP  RH WIND       PRES   REMARKS
CONCORDIA      SUNNY     90  67  46 S12G22    29.83F
6HR MIN TEMP:  72; 6HR MAX TEMP:  90;

EMPORIA        SUNNY     95  60  31 S18G25    29.88F HX  95
6HR MIN TEMP:  70; 6HR MAX TEMP:  95;

LAWRENCE       SUNNY     99  65  32 S8        29.88F HX 102
6HR MIN TEMP:  77; 6HR MAX TEMP:  99;

MANHATTAN      SUNNY     97  62  31 SW14G22   29.84F HX  98
6HR MIN TEMP:  74; 6HR MAX TEMP:  97;

OLATHE IND     SUNNY     96  63  33 SW14      29.90F HX  97
6HR MIN TEMP:  74; 6HR MAX TEMP:  96;

OLATHE EXE     SUNNY     92  70  48 SW8       29.90F HX  97
6HR MIN TEMP:  75; 6HR MAX TEMP:  92;

SALINA         SUNNY     95  62  33 S15G23    29.84F HX  96
6HR MIN TEMP:  74; 6HR MAX TEMP:  96;

TOPEKA BILLARD SUNNY     95  64  35 S9        29.86F HX  97
6HR MIN TEMP:  76; 6HR MAX TEMP:  95;

TOPEKA FORBES  SUNNY     95  63  34 S10       29.87F HX  96
6HR MIN TEMP:  74; 6HR MAX TEMP:  96;

$$



USA.gov is the U.S. government's official web portal to all federal, state and local government web resources and services.